This is the latest recevied weather packets stored in our database for station/object G4KVI. If no packets are shown the sender has not sent any weather packets the latest 10 day(s).
| Time | Temp. | Humidity | Pressure | Rain* | Wind** | Luminosity | Snow |
|---|---|---|---|---|---|---|---|
| 1788120903 | 15.56° C | 86% | 1007.6 hPa | 0 mm | - | 0 W/m² | - |
| 1788120603 | 15.56° C | 85% | 1007.3 hPa | 0 mm | - | 0 W/m² | - |
| 1788120303 | 15.56° C | 85% | 1007.7 hPa | 0 mm | - | 0 W/m² | - |
| 1788120003 | 15.56° C | 84% | 1007.6 hPa | 0 mm | - | 0 W/m² | - |
| 1788119703 | 15.56° C | 84% | 1007.7 hPa | 0 mm | - | 0 W/m² | - |
| 1788119403 | 15.56° C | 83% | 1007.5 hPa | 0 mm | - | 0 W/m² | - |
| 1788119103 | 15.56° C | 83% | 1007.4 hPa | 0 mm | - | 0 W/m² | - |
| 1788118803 | 16.11° C | 83% | 1007.4 hPa | 0 mm | - | 0 W/m² | - |
| 1788118503 | 16.11° C | 83% | 1007.8 hPa | 0 mm | - | 0 W/m² | - |
| 1788118203 | 16.11° C | 82% | 1007.6 hPa | 0 mm | - | 0 W/m² | - |
| 1788117904 | 16.11° C | 82% | 1007.6 hPa | 0 mm | - | 0 W/m² | - |
| 1788117604 | 16.11° C | 82% | 1007.6 hPa | 0 mm | - | 0 W/m² | - |
| 1788117304 | 16.11° C | 82% | 1007.8 hPa | 0 mm | - | 0 W/m² | - |
| 1788117004 | 16.11° C | 83% | 1007.6 hPa | 0.25 mm | - | 1 W/m² | - |
| 1788116704 | 16.11° C | 85% | 1007.2 hPa | 0.25 mm | - | 1 W/m² | - |
| 1788116404 | 16.11° C | 85% | 1007.4 hPa | 0.25 mm | - | 2 W/m² | - |
| 1788116104 | 16.67° C | 85% | 1007.2 hPa | 0.25 mm | - | 4 W/m² | - |
| 1788115804 | 16.67° C | 84% | 1007.1 hPa | 0.25 mm | - | 6 W/m² | - |
| 1788115504 | 16.67° C | 84% | 1007.1 hPa | 0.25 mm | - | 7 W/m² | - |
| 1788115204 | 16.67° C | 84% | 1007 hPa | 0.25 mm | - | 10 W/m² | - |
| 1788114904 | 16.67° C | 84% | 1006.9 hPa | 0.25 mm | - | 17 W/m² | - |
| 1788114604 | 16.67° C | 84% | 1007.1 hPa | 0.51 mm | - | 22 W/m² | - |
| 1788114304 | 17.22° C | 84% | 1007.4 hPa | 0.51 mm | - | 16 W/m² | - |
| 1788114004 | 17.22° C | 84% | 1007.6 hPa | 0.51 mm | - | 11 W/m² | - |
| 1788113704 | 17.22° C | 83% | 1007.5 hPa | 0.51 mm | - | 7 W/m² | - |
* Rain latest hour (hover to see other rain measurements)
** Current wind speed in m/s (hover to see current wind gust speed)